UAE52M OMDB-EDDF

Flight info

Callsign UAE52M
Flight time N/A
Altitude 35000
Route ANVIX L223 TARDI N629 BOTAM Y855 LAKLU/N0496F340 Q204 NALKI G652 TOKRA DCT ALROK DCT BOSOB/N0493F360 DCT ITRUX Y511 PMA Z712 WEJ L677 GESON Q777 RASDA DCT OTHON/N0478F380 UN128 RDS UL609 MES DCT EVIVI DCT OKANA DCT NIVIS DCT BABIT DCT ARSIN DCT BUDEX DCT IPDUL DCT RAPET T170 VAGAB/N0465F240 T170 GAPLA T178 KERAX KERAX5D
Aircraft B77W/H-SDE1E2E3FGHIJ2J3J4J5M1RWXY/LB1D1

Departure

Time 2026-04-23 11:07
Airport Dubai International Airport (OMDB)

Arrival

Time N/A
Airport Frankfurt Main Airport (EDDF)
Time Latitude Longitude Altitude Speed Heading
2026-04-23 10:11 25.24532 55.36562 26 ft 0 kts 357°
2026-04-23 10:39 25.24527 55.36562 27 ft 2 kts 348°
2026-04-23 10:40 25.24512 55.36569 27 ft 2 kts 321°
2026-04-23 10:40 25.24500 55.36582 23 ft 2 kts 300°
2026-04-23 10:40 25.24494 55.36599 24 ft 2 kts 284°
2026-04-23 10:40 25.24490 55.36616 24 ft 2 kts 274°
2026-04-23 10:41 25.24490 55.36634 27 ft 2 kts 264°
2026-04-23 10:41 25.24493 55.36652 24 ft 2 kts 252°
2026-04-23 10:41 25.24496 55.36663 25 ft 1 kts 237°
2026-04-23 10:41 25.24497 55.36665 25 ft 0 kts 230°
2026-04-23 10:42 25.24497 55.36666 25 ft 2 kts 231°
2026-04-23 10:42 25.24506 55.36679 24 ft 1 kts 225°
2026-04-23 10:42 25.24507 55.36681 24 ft 0 kts 224°
2026-04-23 10:44 25.24507 55.36680 24 ft 1 kts 224°
2026-04-23 10:44 25.24495 55.36667 25 ft 3 kts 224°
2026-04-23 10:45 25.24457 55.36610 27 ft 16 kts 245°
2026-04-23 10:45 25.24458 55.36488 27 ft 16 kts 297°
2026-04-23 10:45 25.24518 55.36381 27 ft 16 kts 302°
2026-04-23 10:45 25.24578 55.36274 27 ft 16 kts 301°
2026-04-23 10:46 25.24639 55.36167 27 ft 16 kts 302°
2026-04-23 10:46 25.24699 55.36060 27 ft 16 kts 302°
2026-04-23 10:46 25.24752 55.35964 27 ft 15 kts 302°
2026-04-23 10:46 25.24786 55.35904 27 ft 0 kts 302°
2026-04-23 10:50 25.24787 55.35903 27 ft 1 kts 302°
2026-04-23 10:50 25.24796 55.35887 27 ft 4 kts 302°
2026-04-23 10:50 25.24817 55.35850 27 ft 8 kts 302°
2026-04-23 10:51 25.24850 55.35791 27 ft 10 kts 302°
2026-04-23 10:51 25.24890 55.35727 27 ft 10 kts 306°
2026-04-23 10:51 25.24931 55.35664 27 ft 10 kts 306°
2026-04-23 10:51 25.24985 55.35576 27 ft 16 kts 302°
2026-04-23 10:52 25.25045 55.35470 27 ft 16 kts 301°
2026-04-23 10:52 25.25105 55.35363 27 ft 16 kts 302°
2026-04-23 10:52 25.25168 55.35259 27 ft 16 kts 307°
2026-04-23 10:52 25.25235 55.35157 27 ft 16 kts 302°
2026-04-23 10:53 25.25296 55.35050 27 ft 16 kts 302°
2026-04-23 10:53 25.25356 55.34944 27 ft 16 kts 304°
2026-04-23 10:53 25.25456 55.34900 27 ft 16 kts 11°
2026-04-23 10:53 25.25558 55.34959 27 ft 16 kts 31°
2026-04-23 10:54 25.25654 55.35023 27 ft 15 kts 32°
2026-04-23 10:54 25.25675 55.35091 27 ft 9 kts 99°
2026-04-23 10:54 25.25680 55.35138 27 ft 9 kts 63°
2026-04-23 10:54 25.25748 55.35199 27 ft 8 kts 33°
2026-04-23 10:55 25.25756 55.35205 27 ft 0 kts 32°
2026-04-23 10:55 25.25772 55.35216 26 ft 7 kts 31°
2026-04-23 10:56 25.25803 55.35236 27 ft 8 kts 31°
2026-04-23 10:56 25.25852 55.35269 27 ft 12 kts 31°
2026-04-23 10:56 25.25936 55.35325 27 ft 14 kts 31°
2026-04-23 10:56 25.26005 55.35398 27 ft 14 kts 76°
2026-04-23 10:57 25.26003 55.35508 28 ft 14 kts 102°
2026-04-23 10:57 25.25982 55.35564 27 ft 14 kts 118°
2026-04-23 10:58 25.25934 55.35654 27 ft 14 kts 121°
2026-04-23 10:58 25.25882 55.35748 27 ft 14 kts 121°
2026-04-23 10:58 25.25829 55.35841 27 ft 14 kts 122°
2026-04-23 10:58 25.25776 55.35935 27 ft 14 kts 121°
2026-04-23 10:59 25.25724 55.36028 27 ft 14 kts 122°
2026-04-23 10:59 25.25671 55.36122 27 ft 14 kts 121°
2026-04-23 10:59 25.25618 55.36215 27 ft 14 kts 122°
2026-04-23 10:59 25.25565 55.36309 27 ft 14 kts 122°
2026-04-23 11:00 25.25513 55.36402 27 ft 14 kts 122°
2026-04-23 11:00 25.25460 55.36496 26 ft 14 kts 122°
2026-04-23 11:00 25.25390 55.36621 27 ft 14 kts 121°
2026-04-23 11:00 25.25356 55.36683 27 ft 14 kts 121°
2026-04-23 11:01 25.25303 55.36776 26 ft 14 kts 122°
2026-04-23 11:01 25.25250 55.36870 27 ft 14 kts 121°
2026-04-23 11:01 25.25198 55.36963 27 ft 14 kts 122°
2026-04-23 11:01 25.25145 55.37057 27 ft 14 kts 122°
2026-04-23 11:02 25.25093 55.37150 27 ft 14 kts 122°
2026-04-23 11:02 25.25040 55.37244 27 ft 14 kts 122°
2026-04-23 11:02 25.24987 55.37337 27 ft 14 kts 122°
2026-04-23 11:02 25.24935 55.37431 27 ft 14 kts 122°
2026-04-23 11:03 25.24883 55.37524 26 ft 14 kts 122°
2026-04-23 11:03 25.24830 55.37616 27 ft 14 kts 122°
2026-04-23 11:03 25.24778 55.37710 27 ft 14 kts 122°
2026-04-23 11:03 25.24726 55.37803 27 ft 14 kts 122°
2026-04-23 11:04 25.24728 55.37880 25 ft 10 kts 38°
2026-04-23 11:04 25.24737 55.37886 28 ft 0 kts 32°
2026-04-23 11:05 25.24737 55.37887 28 ft 1 kts 32°
2026-04-23 11:05 25.24763 55.37904 29 ft 5 kts 32°
2026-04-23 11:06 25.24825 55.37945 27 ft 5 kts 26°
2026-04-23 11:06 25.24856 55.37934 27 ft 5 kts 309°
2026-04-23 11:06 25.24876 55.37899 27 ft 7 kts 301°
2026-04-23 11:07 25.24986 55.37703 27 ft 66 kts 302°
2026-04-23 11:07 25.25369 55.37013 27 ft 143 kts 302°
2026-04-23 11:07 25.26005 55.35869 58 ft 200 kts 303°
2026-04-23 11:07 25.26719 55.34568 844 ft 190 kts 303°
2026-04-23 11:08 25.27419 55.33275 1541 ft 205 kts 303°
2026-04-23 11:08 25.28136 55.31938 2244 ft 202 kts 302°
2026-04-23 11:08 25.28881 55.30612 2860 ft 204 kts 302°
2026-04-23 11:08 25.29379 55.29162 3295 ft 206 kts 266°
2026-04-23 11:09 25.28925 55.27709 3820 ft 200 kts 239°
2026-04-23 11:09 25.28286 55.26358 4444 ft 198 kts 242°
2026-04-23 11:09 25.27672 55.24957 4943 ft 204 kts 243°
2026-04-23 11:09 25.27061 55.23547 5560 ft 202 kts 243°
2026-04-23 11:10 25.26462 55.22154 6138 ft 200 kts 243°
2026-04-23 11:10 25.25855 55.20742 6540 ft 212 kts 243°
2026-04-23 11:10 25.25194 55.19198 6804 ft 229 kts 243°
2026-04-23 11:10 25.24365 55.17659 7006 ft 240 kts 224°
2026-04-23 11:11 25.22903 55.16776 7007 ft 248 kts 190°
2026-04-23 11:11 25.21151 55.16770 7037 ft 255 kts 178°
2026-04-23 11:11 25.19393 55.17076 7503 ft 261 kts 159°
2026-04-23 11:11 25.17941 55.18285 7985 ft 278 kts 128°
2026-04-23 11:12 25.16957 55.20215 8393 ft 291 kts 120°
2026-04-23 11:12 25.16017 55.22223 9021 ft 297 kts 120°
2026-04-23 11:12 25.15065 55.24227 9774 ft 300 kts 121°
2026-04-23 11:12 25.14086 55.26273 10475 ft 302 kts 121°
2026-04-23 11:13 25.13099 55.28338 11179 ft 306 kts 121°
2026-04-23 11:13 25.12098 55.30423 11934 ft 309 kts 121°
2026-04-23 11:13 25.11087 55.32524 12727 ft 311 kts 122°
2026-04-23 11:13 25.10108 55.34675 13521 ft 316 kts 118°
2026-04-23 11:14 25.09204 55.36897 14236 ft 320 kts 118°
2026-04-23 11:14 25.08292 55.39155 14825 ft 325 kts 118°
2026-04-23 11:14 25.07359 55.41440 15010 ft 330 kts 118°
2026-04-23 11:14 25.06416 55.43831 15045 ft 353 kts 116°
2026-04-23 11:15 25.05427 55.46414 15219 ft 377 kts 116°
2026-04-23 11:15 25.04377 55.49165 15382 ft 401 kts 116°
2026-04-23 11:15 25.03286 55.52011 15768 ft 414 kts 116°
2026-04-23 11:15 25.02138 55.54993 16441 ft 420 kts 116°
2026-04-23 11:16 25.00866 55.57845 17134 ft 422 kts 122°
2026-04-23 11:16 24.99310 55.60653 17862 ft 426 kts 126°
2026-04-23 11:16 24.97726 55.63381 18478 ft 431 kts 125°
2026-04-23 11:16 24.96138 55.66208 19054 ft 437 kts 124°
2026-04-23 11:17 24.94567 55.69093 19620 ft 442 kts 123°
2026-04-23 11:17 24.92916 55.71971 20176 ft 446 kts 128°
2026-04-23 11:17 24.91081 55.74749 20736 ft 450 kts 130°
2026-04-23 11:17 24.89172 55.77505 21311 ft 455 kts 130°
2026-04-23 11:18 24.87253 55.80306 21867 ft 460 kts 130°
2026-04-23 11:18 24.85345 55.83156 22387 ft 465 kts 129°
2026-04-23 11:18 24.83425 55.86051 22900 ft 470 kts 129°
2026-04-23 11:18 24.81472 55.88962 23396 ft 475 kts 129°
2026-04-23 11:19 24.79491 55.91891 23808 ft 479 kts 129°
2026-04-23 11:19 24.77446 55.94792 24193 ft 480 kts 134°
2026-04-23 11:19 24.75075 55.97379 24569 ft 481 kts 141°
2026-04-23 11:19 24.72531 55.99795 25000 ft 485 kts 142°
2026-04-23 11:20 24.69995 56.02260 25415 ft 490 kts 141°
2026-04-23 11:20 24.67482 56.04808 25827 ft 494 kts 140°
2026-04-23 11:20 24.64966 56.07403 26223 ft 498 kts 140°
2026-04-23 11:20 24.62428 56.10019 26587 ft 503 kts 140°
2026-04-23 11:21 24.59859 56.12653 26957 ft 507 kts 140°
2026-04-23 11:21 24.57283 56.15327 27359 ft 512 kts 137°
2026-04-23 11:21 24.54860 56.18221 27733 ft 517 kts 133°
2026-04-23 11:21 24.52527 56.21238 28096 ft 521 kts 132°
2026-04-23 11:22 24.50173 56.24290 28423 ft 525 kts 132°
2026-04-23 11:22 24.47801 56.27350 28741 ft 528 kts 133°
2026-04-23 11:22 24.45401 56.30425 29043 ft 532 kts 133°
2026-04-23 11:22 24.43010 56.33470 29344 ft 535 kts 133°
2026-04-23 11:23 24.40573 56.36562 29634 ft 538 kts 133°
2026-04-23 11:23 24.38121 56.39672 29974 ft 539 kts 133°
2026-04-23 11:23 24.35671 56.42780 30339 ft 538 kts 133°
2026-04-23 11:23 24.33225 56.45884 30750 ft 537 kts 133°
2026-04-23 11:24 24.30784 56.48980 31144 ft 536 kts 132°
2026-04-23 11:24 24.28437 56.52159 31496 ft 537 kts 128°
2026-04-23 11:24 24.26241 56.55471 31835 ft 538 kts 127°
2026-04-23 11:24 24.24061 56.58809 32184 ft 537 kts 127°
2026-04-23 11:25 24.21895 56.62128 32703 ft 533 kts 127°
2026-04-23 11:25 24.19733 56.65418 33109 ft 532 kts 127°
2026-04-23 11:25 24.17559 56.68701 33424 ft 533 kts 128°
2026-04-23 11:25 24.15373 56.71987 33693 ft 534 kts 128°
2026-04-23 11:26 24.13175 56.75284 33780 ft 538 kts 128°
2026-04-23 11:26 24.08789 56.81867 33818 ft 536 kts 128°
2026-04-23 11:27 24.03733 56.87650 33834 ft 523 kts 149°
2026-04-23 11:27 23.97217 56.90971 33832 ft 512 kts 171°
2026-04-23 11:28 23.90257 56.92694 33858 ft 515 kts 172°
2026-04-23 11:28 23.83257 56.94486 33867 ft 518 kts 171°
2026-04-23 11:29 23.76241 56.96359 33862 ft 520 kts 171°
2026-04-23 11:29 23.69217 56.98251 33869 ft 520 kts 171°
2026-04-23 11:30 23.62198 57.00134 33876 ft 519 kts 171°
2026-04-23 11:30 23.55193 57.02007 33880 ft 518 kts 171°
2026-04-23 11:31 23.48191 57.03876 33894 ft 517 kts 171°
2026-04-23 11:31 23.41182 57.05620 33902 ft 514 kts 177°
2026-04-23 11:32 23.34122 57.05784 33915 ft 504 kts 191°
2026-04-23 11:32 23.27342 57.04398 33898 ft 498 kts 199°
2026-04-23 11:33 23.20582 57.02721 33894 ft 499 kts 198°
2026-04-23 11:33 23.13790 57.01108 33891 ft 500 kts 198°
2026-04-23 11:34 23.06988 56.99523 33915 ft 499 kts 198°
2026-04-23 11:34 23.00192 56.97935 33890 ft 500 kts 198°
2026-04-23 11:35 22.93399 56.96318 33895 ft 500 kts 198°
2026-04-23 11:35 22.86628 56.94628 33854 ft 492 kts 205°
2026-04-23 11:35 22.83623 56.93011 33886 ft 477 kts 222°
2026-04-23 11:36 22.81193 56.90634 33872 ft 467 kts 235°
2026-04-23 11:36 22.79372 56.87777 33885 ft 456 kts 247°
2026-04-23 11:36 22.77944 56.84711 33884 ft 456 kts 248°
2026-04-23 11:37 22.75111 56.78579 33825 ft 447 kts 248°
2026-04-23 11:37 22.72248 56.72510 33861 ft 458 kts 247°
2026-04-23 11:38 22.69292 56.66332 33854 ft 463 kts 247°
2026-04-23 11:38 22.66339 56.60203 33840 ft 462 kts 247°
2026-04-23 11:39 22.63374 56.54047 33829 ft 460 kts 247°
2026-04-23 11:39 22.60424 56.47925 33826 ft 457 kts 247°
2026-04-23 11:40 22.57491 56.41841 33826 ft 455 kts 247°
2026-04-23 11:40 22.54601 56.35867 33826 ft 441 kts 247°
2026-04-23 11:41 22.51738 56.29960 33800 ft 438 kts 247°
2026-04-23 11:41 22.48870 56.24044 33825 ft 450 kts 247°
2026-04-23 11:42 22.45938 56.18007 33801 ft 450 kts 247°
2026-04-23 11:42 22.42999 56.11968 33816 ft 458 kts 247°
2026-04-23 11:43 22.40020 56.05849 33809 ft 459 kts 247°
2026-04-23 11:43 22.37066 55.99803 33795 ft 452 kts 247°
2026-04-23 11:44 22.34143 55.93850 33794 ft 452 kts 247°
2026-04-23 11:44 22.31193 55.87854 33791 ft 452 kts 247°
2026-04-23 11:45 22.28240 55.81852 33794 ft 453 kts 247°
2026-04-23 11:45 22.25281 55.75845 33788 ft 453 kts 247°
2026-04-23 11:46 22.22802 55.70811 33793 ft 453 kts 247°
2026-04-23 11:46 22.19869 55.64853 33777 ft 453 kts 247°
2026-04-23 11:47 22.17111 55.58776 33776 ft 447 kts 254°
2026-04-23 11:47 22.15463 55.52361 33786 ft 442 kts 262°
2026-04-23 11:48 22.14760 55.45817 33769 ft 438 kts 268°
2026-04-23 11:48 22.14258 55.39222 33777 ft 443 kts 268°
2026-04-23 11:49 22.13741 55.32618 33759 ft 440 kts 268°
2026-04-23 11:49 22.13207 55.26059 33758 ft 438 kts 267°
2026-04-23 11:50 22.12663 55.19494 33765 ft 441 kts 267°
2026-04-23 11:50 22.12111 55.12888 33760 ft 443 kts 267°
2026-04-23 11:51 22.11555 55.06269 33761 ft 443 kts 267°
2026-04-23 11:51 22.10996 54.99648 33753 ft 443 kts 267°
2026-04-23 11:52 22.10439 54.93080 33753 ft 442 kts 267°
2026-04-23 11:52 22.09877 54.86491 33752 ft 441 kts 267°
2026-04-23 11:53 22.09315 54.79915 33751 ft 440 kts 267°
2026-04-23 11:53 22.08751 54.73353 33747 ft 440 kts 266°
2026-04-23 11:54 22.08184 54.66793 33752 ft 439 kts 266°
2026-04-23 11:54 22.07615 54.60232 33751 ft 440 kts 266°
2026-04-23 11:55 22.07042 54.53657 33746 ft 441 kts 266°
2026-04-23 11:55 22.06754 54.50358 33886 ft 443 kts 266°
2026-04-23 11:55 22.06465 54.47060 34168 ft 442 kts 266°
2026-04-23 11:55 22.06176 54.43774 34502 ft 439 kts 266°
2026-04-23 11:56 22.05888 54.40512 34861 ft 436 kts 266°
2026-04-23 11:56 22.05600 54.37265 35197 ft 434 kts 266°
2026-04-23 11:56 22.05313 54.34033 35478 ft 433 kts 267°
2026-04-23 11:56 22.05027 54.30801 35656 ft 433 kts 267°
2026-04-23 11:57 22.04739 54.27562 35702 ft 435 kts 267°
2026-04-23 11:57 22.04162 54.21082 35737 ft 433 kts 267°
2026-04-23 11:58 22.03584 54.14637 35739 ft 431 kts 267°
2026-04-23 11:58 22.03007 54.08221 35739 ft 430 kts 267°
2026-04-23 11:59 22.02428 54.01809 35746 ft 429 kts 266°
2026-04-23 11:59 22.01850 53.95449 35750 ft 430 kts 266°
2026-04-23 12:00 22.01266 53.89046 35743 ft 429 kts 266°
2026-04-23 12:00 22.00680 53.82639 35746 ft 429 kts 266°
2026-04-23 12:01 22.00090 53.76230 35747 ft 430 kts 266°
2026-04-23 12:01 21.99498 53.69814 35746 ft 431 kts 266°
2026-04-23 12:02 21.98901 53.63384 35742 ft 432 kts 266°
2026-04-23 12:02 21.98301 53.56947 35740 ft 432 kts 266°
2026-04-23 12:03 21.97698 53.50497 35741 ft 432 kts 266°
2026-04-23 12:03 21.97092 53.44047 35741 ft 433 kts 266°
2026-04-23 12:04 21.96484 53.37602 35742 ft 432 kts 266°
2026-04-23 12:04 21.95873 53.31158 35738 ft 432 kts 266°
2026-04-23 12:05 21.95264 53.24761 35731 ft 432 kts 266°
2026-04-23 12:05 21.94649 53.18324 35741 ft 432 kts 266°
2026-04-23 12:06 21.94032 53.11893 35741 ft 432 kts 266°
2026-04-23 12:06 21.93102 53.02254 35743 ft 431 kts 266°
2026-04-23 12:07 21.92479 52.95827 35732 ft 432 kts 266°
2026-04-23 12:07 21.91853 52.89391 35740 ft 432 kts 266°
2026-04-23 12:08 21.91225 52.82956 35744 ft 432 kts 266°
2026-04-23 12:08 21.90592 52.76508 35739 ft 433 kts 266°
2026-04-23 12:09 21.90464 52.70045 35749 ft 431 kts 274°
2026-04-23 12:09 21.91207 52.63646 35740 ft 431 kts 281°
2026-04-23 12:10 21.92388 52.57315 35757 ft 431 kts 281°
2026-04-23 12:10 21.93580 52.50982 35738 ft 431 kts 281°
2026-04-23 12:11 21.94756 52.44644 35742 ft 431 kts 281°
2026-04-23 12:11 21.95918 52.38314 35738 ft 431 kts 281°
2026-04-23 12:12 21.97074 52.31988 35743 ft 430 kts 281°
2026-04-23 12:12 21.98226 52.25661 35738 ft 430 kts 281°
2026-04-23 12:13 21.99376 52.19337 35745 ft 430 kts 281°
2026-04-23 12:13 22.00524 52.13007 35747 ft 430 kts 281°
2026-04-23 12:14 22.01669 52.06679 35750 ft 430 kts 281°
2026-04-23 12:14 22.02813 52.00344 35762 ft 431 kts 281°
2026-04-23 12:15 22.03955 51.94009 35750 ft 431 kts 281°
2026-04-23 12:15 22.05094 51.87669 35754 ft 431 kts 281°
2026-04-23 12:16 22.06230 51.81337 35741 ft 424 kts 281°
2026-04-23 12:16 22.06780 51.78269 35736 ft 410 kts 281°
2026-04-23 12:16 22.07313 51.75291 35734 ft 399 kts 280°
2026-04-23 12:17 22.08336 51.69562 35743 ft 383 kts 280°
2026-04-23 12:17 22.09356 51.63835 35773 ft 395 kts 280°
2026-04-23 12:18 22.10399 51.57962 35777 ft 407 kts 280°
2026-04-23 12:18 22.11479 51.51877 35773 ft 419 kts 280°
2026-04-23 12:19 22.12582 51.45641 35772 ft 428 kts 280°
2026-04-23 12:19 22.13705 51.39284 35774 ft 434 kts 280°
2026-04-23 12:20 22.14832 51.32891 35762 ft 434 kts 280°
2026-04-23 12:20 22.15956 51.26499 35762 ft 433 kts 280°
2026-04-23 12:21 22.17075 51.20116 35774 ft 433 kts 280°
2026-04-23 12:21 22.18190 51.13742 35769 ft 432 kts 280°
2026-04-23 12:22 22.19302 51.07372 35774 ft 431 kts 280°
2026-04-23 12:22 22.20408 51.01017 35771 ft 431 kts 280°
2026-04-23 12:23 22.21512 50.94662 35776 ft 431 kts 280°
2026-04-23 12:23 22.22612 50.88310 35797 ft 431 kts 280°
2026-04-23 12:24 22.23711 50.81954 35781 ft 431 kts 280°
2026-04-23 12:24 22.24807 50.75597 35779 ft 430 kts 280°
2026-04-23 12:25 22.25900 50.69246 35778 ft 430 kts 280°
2026-04-23 12:25 22.26982 50.62941 35772 ft 430 kts 280°
2026-04-23 12:26 22.28069 50.56588 35782 ft 430 kts 280°
2026-04-23 12:26 22.29154 50.50233 35781 ft 430 kts 279°
2026-04-23 12:27 22.30239 50.43866 35784 ft 431 kts 279°
2026-04-23 12:27 22.31321 50.37501 35784 ft 431 kts 279°
2026-04-23 12:28 22.32401 50.31129 35795 ft 431 kts 279°
2026-04-23 12:28 22.33479 50.24754 35787 ft 431 kts 279°
2026-04-23 12:29 22.34554 50.18384 35784 ft 431 kts 279°
2026-04-23 12:29 22.35625 50.12018 35781 ft 430 kts 279°
2026-04-23 12:30 22.36693 50.05660 35784 ft 430 kts 279°
2026-04-23 12:30 22.37750 49.99347 35782 ft 430 kts 279°
2026-04-23 12:31 22.38810 49.92996 35782 ft 429 kts 279°
2026-04-23 12:31 22.39869 49.86646 35784 ft 429 kts 279°
2026-04-23 12:32 22.40924 49.80296 35782 ft 429 kts 279°
2026-04-23 12:32 22.41799 49.75018 35780 ft 429 kts 279°
2026-04-23 12:33 22.42851 49.68658 35784 ft 430 kts 279°
2026-04-23 12:33 22.43901 49.62298 35783 ft 430 kts 279°
2026-04-23 12:34 22.44948 49.55935 35781 ft 430 kts 279°
2026-04-23 12:34 22.45994 49.49568 35785 ft 430 kts 279°
2026-04-23 12:35 22.47037 49.43196 35780 ft 430 kts 279°
2026-04-23 12:35 22.48072 49.36863 35782 ft 430 kts 279°
2026-04-23 12:36 22.49109 49.30495 35780 ft 430 kts 279°
2026-04-23 12:36 22.50144 49.24127 35805 ft 430 kts 279°
2026-04-23 12:37 22.51176 49.17760 35787 ft 430 kts 279°
2026-04-23 12:37 22.52205 49.11399 35783 ft 429 kts 279°
2026-04-23 12:38 22.53229 49.05048 35778 ft 428 kts 279°
2026-04-23 12:38 22.54250 48.98705 35786 ft 428 kts 279°
2026-04-23 12:39 22.55266 48.92368 35787 ft 428 kts 279°
2026-04-23 12:39 22.56280 48.86032 35787 ft 428 kts 279°
2026-04-23 12:40 22.57285 48.79735 35791 ft 428 kts 279°
2026-04-23 12:40 22.58295 48.73392 35790 ft 428 kts 279°
2026-04-23 12:41 22.59303 48.67040 35794 ft 428 kts 279°
2026-04-23 12:41 22.60309 48.60687 35788 ft 428 kts 279°
2026-04-23 12:42 22.61313 48.54333 35788 ft 428 kts 279°
2026-04-23 12:42 22.62315 48.47976 35786 ft 429 kts 279°
2026-04-23 12:43 22.63314 48.41618 35785 ft 429 kts 279°
2026-04-23 12:43 22.64310 48.35260 35791 ft 428 kts 279°
2026-04-23 12:44 22.65304 48.28896 35786 ft 429 kts 279°
2026-04-23 12:44 22.66296 48.22531 35785 ft 429 kts 279°
2026-04-23 12:45 22.67286 48.16165 35793 ft 429 kts 278°
2026-04-23 12:45 22.68274 48.09791 35791 ft 429 kts 278°
2026-04-23 12:46 22.69229 48.03457 35783 ft 429 kts 277°
2026-04-23 12:46 22.69797 47.97036 35795 ft 428 kts 275°
2026-04-23 12:47 22.70313 47.90609 35791 ft 428 kts 275°
2026-04-23 12:47 22.70837 47.84184 35794 ft 428 kts 275°
2026-04-23 12:48 22.71365 47.77758 35787 ft 428 kts 275°
2026-04-23 12:48 22.71894 47.71330 35798 ft 428 kts 275°
2026-04-23 12:49 22.72420 47.64905 35815 ft 428 kts 275°
2026-04-23 12:49 22.72943 47.58475 35799 ft 429 kts 275°
2026-04-23 12:50 22.73464 47.52041 35800 ft 429 kts 275°
2026-04-23 12:50 22.73982 47.45609 35805 ft 429 kts 275°
2026-04-23 12:51 22.74498 47.39176 35798 ft 428 kts 275°
2026-04-23 12:51 22.75010 47.32747 35806 ft 428 kts 275°
2026-04-23 12:52 22.75520 47.26322 35809 ft 428 kts 275°
2026-04-23 12:52 22.76027 47.19901 35809 ft 428 kts 275°
2026-04-23 12:53 22.76536 47.13484 35812 ft 427 kts 275°
2026-04-23 12:53 22.77046 47.07113 35813 ft 427 kts 275°
2026-04-23 12:54 22.77558 47.00711 35831 ft 426 kts 275°
2026-04-23 12:54 22.78066 46.94310 35829 ft 426 kts 275°
2026-04-23 12:55 22.78568 46.87926 35833 ft 425 kts 275°
2026-04-23 12:55 22.79068 46.81549 35822 ft 424 kts 275°
2026-04-23 12:56 22.79565 46.75179 35818 ft 424 kts 275°
2026-04-23 12:56 22.80059 46.68810 35818 ft 424 kts 275°
2026-04-23 12:57 22.80551 46.62437 35815 ft 424 kts 275°
2026-04-23 12:57 22.81040 46.56066 35825 ft 424 kts 275°
2026-04-23 12:58 22.81527 46.49693 35818 ft 424 kts 275°
2026-04-23 12:58 22.82012 46.43312 35814 ft 425 kts 274°
2026-04-23 12:59 22.82493 46.36925 35819 ft 425 kts 274°
2026-04-23 12:59 22.82967 46.30526 35804 ft 426 kts 274°
2026-04-23 13:00 22.83438 46.24117 35794 ft 427 kts 274°
2026-04-23 13:00 22.83904 46.17743 35798 ft 427 kts 274°
2026-04-23 13:01 22.84371 46.11326 35790 ft 427 kts 274°
2026-04-23 13:01 22.84837 46.04902 35779 ft 428 kts 274°
2026-04-23 13:02 22.85301 45.98464 35766 ft 428 kts 274°
2026-04-23 13:02 22.85762 45.92032 35770 ft 428 kts 274°
2026-04-23 13:03 22.86220 45.85592 35775 ft 429 kts 273°
2026-04-23 13:03 22.86677 45.79137 35758 ft 430 kts 273°
2026-04-23 13:04 22.87132 45.72668 35760 ft 430 kts 273°
2026-04-23 13:04 22.87586 45.66192 35755 ft 431 kts 273°
2026-04-23 13:05 22.88037 45.59705 35762 ft 432 kts 273°
2026-04-23 13:05 22.88487 45.53204 35761 ft 432 kts 273°
2026-04-23 13:06 22.89157 45.43451 35759 ft 432 kts 273°
2026-04-23 13:07 22.89599 45.36947 35769 ft 432 kts 272°
2026-04-23 13:07 22.90041 45.30445 35768 ft 432 kts 272°
2026-04-23 13:08 22.90478 45.23947 35757 ft 432 kts 272°
2026-04-23 13:08 22.90910 45.17485 35752 ft 432 kts 272°
2026-04-23 13:09 22.91342 45.10989 35755 ft 432 kts 272°
2026-04-23 13:09 22.91772 45.04496 35754 ft 432 kts 272°
2026-04-23 13:10 22.92200 44.98001 35746 ft 432 kts 272°
2026-04-23 13:10 22.92625 44.91504 35752 ft 432 kts 272°
2026-04-23 13:11 22.93049 44.85002 35760 ft 432 kts 272°
2026-04-23 13:11 22.93470 44.78491 35760 ft 433 kts 272°
2026-04-23 13:12 22.93889 44.71975 35761 ft 433 kts 272°
2026-04-23 13:12 22.94816 44.65506 35758 ft 435 kts 280°
2026-04-23 13:13 22.96594 44.59200 35769 ft 438 kts 285°
2026-04-23 13:13 22.98557 44.52946 35750 ft 438 kts 285°
2026-04-23 13:14 23.00507 44.46687 35757 ft 438 kts 285°
2026-04-23 13:14 23.02443 44.40422 35765 ft 438 kts 284°
2026-04-23 13:15 23.04371 44.34156 35765 ft 438 kts 284°
2026-04-23 13:15 23.06283 44.27931 35753 ft 438 kts 284°
2026-04-23 13:16 23.08207 44.21657 35754 ft 437 kts 284°
2026-04-23 13:16 23.10127 44.15387 35751 ft 437 kts 284°
2026-04-23 13:17 23.12045 44.09115 35775 ft 437 kts 284°
2026-04-23 13:17 23.13960 44.02840 35761 ft 437 kts 284°
2026-04-23 13:18 23.15872 43.96570 35759 ft 437 kts 284°
2026-04-23 13:18 23.17779 43.90304 35767 ft 437 kts 284°
2026-04-23 13:19 23.19681 43.84041 35768 ft 436 kts 284°
2026-04-23 13:19 23.21579 43.77785 35769 ft 436 kts 284°
2026-04-23 13:20 23.23472 43.71534 35783 ft 435 kts 284°
2026-04-23 13:20 23.25349 43.65324 35790 ft 435 kts 284°
2026-04-23 13:21 23.27237 43.59073 35799 ft 435 kts 283°
2026-04-23 13:21 23.29122 43.52811 35799 ft 436 kts 283°
2026-04-23 13:22 23.31005 43.46543 35804 ft 436 kts 283°
2026-04-23 13:22 23.32581 43.41288 35825 ft 436 kts 283°
2026-04-23 13:23 23.34461 43.35011 35823 ft 436 kts 283°
2026-04-23 13:23 23.36338 43.28734 35820 ft 436 kts 283°
2026-04-23 13:24 23.38197 43.22505 35829 ft 435 kts 283°
2026-04-23 13:24 23.40067 43.16232 35841 ft 435 kts 283°
2026-04-23 13:25 23.41928 43.09965 35848 ft 435 kts 283°
2026-04-23 13:25 23.43778 43.03700 35849 ft 435 kts 283°
2026-04-23 13:26 23.45627 42.97428 35845 ft 435 kts 283°
2026-04-23 13:26 23.47477 42.91147 35850 ft 435 kts 283°
2026-04-23 13:27 23.49325 42.84861 35853 ft 436 kts 283°
2026-04-23 13:27 23.51172 42.78568 35852 ft 436 kts 283°
2026-04-23 13:28 23.53022 42.72272 35847 ft 437 kts 283°
2026-04-23 13:28 23.54884 42.65972 35846 ft 437 kts 283°
2026-04-23 13:29 23.56744 42.59670 35855 ft 437 kts 283°
2026-04-23 13:29 23.58588 42.53409 35842 ft 436 kts 283°
2026-04-23 13:30 23.60437 42.47116 35838 ft 435 kts 283°
2026-04-23 13:30 23.62279 42.40836 35835 ft 434 kts 283°
2026-04-23 13:31 23.64113 42.34572 35832 ft 433 kts 283°
2026-04-23 13:31 23.65940 42.28325 35827 ft 432 kts 283°
2026-04-23 13:32 23.67742 42.22090 35823 ft 430 kts 283°
2026-04-23 13:32 23.69531 42.15866 35829 ft 430 kts 283°
2026-04-23 13:33 23.71318 42.09648 35825 ft 429 kts 283°
2026-04-23 13:33 23.73099 42.03442 35824 ft 428 kts 283°
2026-04-23 13:34 23.74880 41.97238 35847 ft 428 kts 283°
2026-04-23 13:34 23.76681 41.91049 35830 ft 427 kts 283°
2026-04-23 13:35 23.78480 41.84864 35822 ft 427 kts 283°
2026-04-23 13:35 23.80271 41.78688 35832 ft 426 kts 283°
2026-04-23 13:36 23.82041 41.72550 35827 ft 426 kts 283°
2026-04-23 13:36 23.83813 41.66378 35825 ft 426 kts 283°
2026-04-23 13:37 23.85583 41.60204 35821 ft 426 kts 283°
2026-04-23 13:37 23.87350 41.54032 35828 ft 426 kts 283°
2026-04-23 13:38 23.89114 41.47851 35822 ft 426 kts 283°
2026-04-23 13:38 23.90877 41.41660 35823 ft 427 kts 283°
2026-04-23 13:39 23.92629 41.35501 35823 ft 427 kts 283°
2026-04-23 13:39 23.94390 41.29300 35832 ft 427 kts 283°
2026-04-23 13:40 23.96149 41.23091 35824 ft 427 kts 283°
2026-04-23 13:40 23.97904 41.16887 35824 ft 427 kts 283°
2026-04-23 13:41 23.99654 41.10688 35839 ft 426 kts 282°
2026-04-23 13:41 24.01398 41.04498 35830 ft 425 kts 282°
2026-04-23 13:42 24.03134 40.98330 35834 ft 424 kts 282°
2026-04-23 13:42 24.04863 40.92173 35819 ft 423 kts 282°
2026-04-23 13:43 24.06586 40.86025 35840 ft 422 kts 282°
2026-04-23 13:43 24.08300 40.79893 35830 ft 421 kts 282°
2026-04-23 13:44 24.09998 40.73809 35829 ft 420 kts 282°
2026-04-23 13:44 24.11704 40.67688 35825 ft 420 kts 282°
2026-04-23 13:45 24.13405 40.61572 35835 ft 420 kts 282°
2026-04-23 13:45 24.15106 40.55449 35839 ft 420 kts 282°
2026-04-23 13:46 24.17168 40.49422 35836 ft 427 kts 289°
2026-04-23 13:46 24.19941 40.43644 35846 ft 429 kts 291°
2026-04-23 13:47 24.22726 40.37864 35837 ft 429 kts 291°
2026-04-23 13:47 24.25496 40.32077 35838 ft 429 kts 291°
2026-04-23 13:48 24.28259 40.26287 35841 ft 428 kts 291°
2026-04-23 13:48 24.31018 40.20495 35848 ft 428 kts 291°
2026-04-23 13:49 24.33773 40.14707 35848 ft 428 kts 291°
2026-04-23 13:49 24.36524 40.08920 35849 ft 428 kts 291°
2026-04-23 13:50 24.39271 40.03136 35850 ft 428 kts 291°
2026-04-23 13:50 24.42016 39.97346 35853 ft 428 kts 290°
2026-04-23 13:51 24.44758 39.91555 35858 ft 428 kts 290°
2026-04-23 13:51 24.47484 39.85792 35855 ft 428 kts 290°
2026-04-23 13:52 24.50226 39.79988 35877 ft 429 kts 290°
2026-04-23 13:52 24.53074 39.74211 35857 ft 435 kts 296°
2026-04-23 13:53 24.57006 39.69031 35862 ft 447 kts 306°
2026-04-23 13:53 24.61872 39.64617 35860 ft 458 kts 315°
2026-04-23 13:54 24.67078 39.60548 35857 ft 459 kts 315°
2026-04-23 13:54 24.72269 39.56476 35857 ft 458 kts 315°
2026-04-23 13:55 24.77427 39.52375 35851 ft 457 kts 314°
2026-04-23 13:55 24.82567 39.48262 35850 ft 457 kts 314°
2026-04-23 13:56 24.87709 39.44141 35858 ft 457 kts 314°
2026-04-23 13:56 24.92840 39.40026 35845 ft 456 kts 314°
2026-04-23 13:57 24.97966 39.35912 35838 ft 456 kts 314°
2026-04-23 13:57 25.03093 39.31792 35842 ft 456 kts 314°
2026-04-23 13:58 25.08179 39.27702 35848 ft 456 kts 314°
2026-04-23 13:58 25.13302 39.23576 35839 ft 456 kts 314°
2026-04-23 13:59 25.18408 39.19438 35860 ft 453 kts 311°
2026-04-23 13:59 25.22836 39.14670 35844 ft 440 kts 302°
2026-04-23 14:00 25.25889 39.10246 35832 ft 432 kts 296°
2026-04-23 14:00 25.29692 39.03712 35828 ft 433 kts 295°
2026-04-23 14:01 25.32940 38.98098 35823 ft 434 kts 295°
2026-04-23 14:01 25.36212 38.92475 35813 ft 436 kts 295°
2026-04-23 14:02 25.39502 38.86833 35810 ft 437 kts 295°
2026-04-23 14:02 25.42799 38.81182 35799 ft 437 kts 295°
2026-04-23 14:03 25.46079 38.75553 35796 ft 437 kts 295°
2026-04-23 14:03 25.49375 38.69888 35783 ft 437 kts 295°
2026-04-23 14:04 25.52664 38.64229 35785 ft 437 kts 295°
2026-04-23 14:04 25.55949 38.58566 35780 ft 438 kts 295°
2026-04-23 14:05 25.59240 38.52887 35781 ft 438 kts 295°
2026-04-23 14:05 25.62535 38.47195 35777 ft 439 kts 295°
2026-04-23 14:06 25.65833 38.41491 35773 ft 440 kts 295°
2026-04-23 14:06 25.69132 38.35778 35793 ft 440 kts 295°
2026-04-23 14:07 25.72435 38.30051 35787 ft 441 kts 295°
2026-04-23 14:07 25.77389 38.21450 35782 ft 441 kts 295°
2026-04-23 14:08 25.80669 38.15745 35787 ft 441 kts 295°
2026-04-23 14:08 25.83959 38.10019 35778 ft 439 kts 295°
2026-04-23 14:09 25.87253 38.04276 35783 ft 437 kts 295°
2026-04-23 14:09 25.90493 37.98619 35799 ft 437 kts 295°
2026-04-23 14:10 25.93749 37.92927 35816 ft 436 kts 294°
2026-04-23 14:10 25.97000 37.87238 35821 ft 435 kts 294°
2026-04-23 14:11 25.99681 37.81319 35814 ft 423 kts 283°
2026-04-23 14:11 26.01360 37.75111 35823 ft 416 kts 275°
2026-04-23 14:12 26.02090 37.69841 35840 ft 416 kts 273°
2026-04-23 14:12 26.02918 37.63463 35828 ft 418 kts 273°
2026-04-23 14:13 26.03781 37.57059 35827 ft 419 kts 273°
2026-04-23 14:13 26.04654 37.50644 35819 ft 420 kts 273°
2026-04-23 14:14 26.05512 37.44241 35831 ft 419 kts 273°
2026-04-23 14:14 26.06365 37.37823 35794 ft 419 kts 272°
2026-04-23 14:15 26.07215 37.31413 35814 ft 418 kts 273°
2026-04-23 14:15 26.08056 37.25038 35815 ft 419 kts 273°
2026-04-23 14:16 26.08899 37.18624 35799 ft 419 kts 273°
2026-04-23 14:16 26.09741 37.12208 35786 ft 419 kts 273°
2026-04-23 14:17 26.10579 37.05807 35786 ft 418 kts 272°
2026-04-23 14:17 26.11411 36.99415 35791 ft 417 kts 272°
2026-04-23 14:18 26.12240 36.93028 35782 ft 417 kts 272°
2026-04-23 14:18 26.13064 36.86656 35785 ft 416 kts 272°
2026-04-23 14:19 26.13887 36.80273 35766 ft 416 kts 272°
2026-04-23 14:19 26.14701 36.73935 35792 ft 417 kts 272°
2026-04-23 14:20 26.15518 36.67541 35776 ft 417 kts 272°
2026-04-23 14:20 26.16335 36.61142 35771 ft 418 kts 272°
2026-04-23 14:21 26.17158 36.54743 35772 ft 418 kts 274°
2026-04-23 14:21 26.19222 36.48570 35785 ft 435 kts 290°
2026-04-23 14:22 26.22751 36.42974 35779 ft 453 kts 304°
2026-04-23 14:22 26.27179 36.37952 35775 ft 455 kts 305°
2026-04-23 14:23 26.31637 36.32947 35778 ft 455 kts 305°
2026-04-23 14:23 26.36050 36.27909 35772 ft 453 kts 304°
2026-04-23 14:24 26.40425 36.22862 35783 ft 452 kts 304°
2026-04-23 14:24 26.44785 36.17818 35769 ft 451 kts 304°
2026-04-23 14:25 26.49131 36.12785 35769 ft 450 kts 304°
2026-04-23 14:25 26.53473 36.07753 35770 ft 449 kts 304°
2026-04-23 14:26 26.57802 36.02731 35769 ft 449 kts 304°
2026-04-23 14:26 26.62104 35.97734 35773 ft 449 kts 304°
2026-04-23 14:27 26.66433 35.92700 35799 ft 449 kts 304°
2026-04-23 14:27 26.70761 35.87661 35775 ft 449 kts 303°
2026-04-23 14:28 26.75083 35.82623 35776 ft 448 kts 303°
2026-04-23 14:28 26.79397 35.77591 35773 ft 448 kts 303°
2026-04-23 14:29 26.83702 35.72564 35764 ft 447 kts 303°
2026-04-23 14:29 26.88003 35.67535 35766 ft 447 kts 303°
2026-04-23 14:30 26.92297 35.62507 35769 ft 446 kts 303°
2026-04-23 14:30 26.96591 35.57472 35767 ft 446 kts 303°
2026-04-23 14:31 27.00881 35.52437 35761 ft 447 kts 303°
2026-04-23 14:31 27.05146 35.47425 35789 ft 447 kts 303°
2026-04-23 14:32 27.09442 35.42370 35772 ft 447 kts 303°
2026-04-23 14:32 27.13734 35.37315 35766 ft 447 kts 303°
2026-04-23 14:33 27.18022 35.32259 35771 ft 447 kts 303°
2026-04-23 14:33 27.22303 35.27204 35769 ft 446 kts 303°
2026-04-23 14:34 27.26581 35.22146 35768 ft 446 kts 303°
2026-04-23 14:34 27.30852 35.17091 35766 ft 446 kts 303°
2026-04-23 14:35 27.35121 35.12032 35759 ft 446 kts 303°
2026-04-23 14:35 27.39388 35.06969 35759 ft 446 kts 303°
2026-04-23 14:36 27.43653 35.01902 35758 ft 446 kts 303°
2026-04-23 14:36 27.47912 34.96837 35759 ft 445 kts 303°
2026-04-23 14:37 27.52206 34.91804 35760 ft 448 kts 305°
2026-04-23 14:37 27.56721 34.87010 35764 ft 448 kts 306°
2026-04-23 14:38 27.61293 34.82226 35774 ft 448 kts 306°
2026-04-23 14:38 27.65845 34.77429 35770 ft 448 kts 306°
2026-04-23 14:39 27.70385 34.72619 35800 ft 448 kts 306°
2026-04-23 14:39 27.74922 34.67802 35790 ft 448 kts 306°
2026-04-23 14:40 27.79468 34.62968 35789 ft 450 kts 307°
2026-04-23 14:40 27.84030 34.58116 35790 ft 451 kts 307°
2026-04-23 14:41 27.88599 34.53250 35794 ft 451 kts 307°
2026-04-23 14:41 27.93167 34.48379 35801 ft 452 kts 307°
2026-04-23 14:42 27.97749 34.43489 35801 ft 453 kts 308°
2026-04-23 14:42 28.02021 34.38351 35807 ft 444 kts 301°
2026-04-23 14:43 28.05908 34.32926 35826 ft 444 kts 300°
2026-04-23 14:43 28.09781 34.27520 35813 ft 445 kts 301°
2026-04-23 14:44 28.13703 34.22074 35860 ft 446 kts 301°
2026-04-23 14:44 28.17634 34.16617 35850 ft 447 kts 302°
2026-04-23 14:45 28.21567 34.11155 35851 ft 448 kts 302°
2026-04-23 14:45 28.25508 34.05681 35865 ft 448 kts 301°
2026-04-23 14:46 28.29442 34.00201 35858 ft 447 kts 301°
2026-04-23 14:46 28.33365 33.94737 35889 ft 446 kts 302°
2026-04-23 14:47 28.37295 33.89245 35873 ft 449 kts 302°
2026-04-23 14:47 28.41239 33.83729 35870 ft 450 kts 302°
2026-04-23 14:48 28.45159 33.78243 35857 ft 450 kts 302°
2026-04-23 14:48 28.49100 33.72720 35821 ft 448 kts 302°
2026-04-23 14:49 28.53022 33.67218 35842 ft 448 kts 302°
2026-04-23 14:49 28.56930 33.61720 35904 ft 445 kts 302°
2026-04-23 14:50 28.60834 33.56216 35843 ft 448 kts 302°
2026-04-23 14:50 28.64757 33.50683 35858 ft 450 kts 302°
2026-04-23 14:51 28.68708 33.45115 35840 ft 453 kts 302°
2026-04-23 14:51 28.72665 33.39535 35855 ft 453 kts 302°
2026-04-23 14:52 28.76619 33.33951 35847 ft 452 kts 302°
2026-04-23 14:52 28.80544 33.28397 35840 ft 452 kts 302°
2026-04-23 14:53 28.84481 33.22817 35832 ft 452 kts 302°
2026-04-23 14:53 28.88413 33.17237 35837 ft 451 kts 302°
2026-04-23 14:54 28.92340 33.11657 35836 ft 450 kts 303°
2026-04-23 14:54 28.96256 33.06085 35832 ft 450 kts 302°
2026-04-23 14:55 29.00167 33.00512 35833 ft 449 kts 302°
2026-04-23 14:55 29.04074 32.94938 35841 ft 449 kts 302°
2026-04-23 14:56 29.07978 32.89359 35845 ft 449 kts 302°
2026-04-23 14:56 29.11886 32.83768 35842 ft 450 kts 303°
2026-04-23 14:57 29.15792 32.78173 35858 ft 450 kts 303°
2026-04-23 14:57 29.19700 32.72567 35864 ft 451 kts 303°
2026-04-23 14:58 29.23610 32.66949 35861 ft 451 kts 303°
2026-04-23 14:58 29.27517 32.61330 35887 ft 451 kts 303°
2026-04-23 14:59 29.31390 32.55725 35877 ft 451 kts 303°
2026-04-23 14:59 29.35269 32.50064 35899 ft 452 kts 303°
2026-04-23 15:00 29.39147 32.44396 35890 ft 452 kts 303°
2026-04-23 15:00 29.43027 32.38723 35906 ft 452 kts 303°
2026-04-23 15:01 29.46906 32.33045 35916 ft 452 kts 303°
2026-04-23 15:01 29.50787 32.27358 35918 ft 452 kts 303°
2026-04-23 15:02 29.54008 32.22631 35912 ft 452 kts 303°
2026-04-23 15:02 29.57881 32.16942 35921 ft 452 kts 303°
2026-04-23 15:03 29.61749 32.11249 35924 ft 452 kts 303°
2026-04-23 15:03 29.65613 32.05555 35944 ft 452 kts 303°
2026-04-23 15:04 29.69475 31.99855 35928 ft 452 kts 303°
2026-04-23 15:04 29.73334 31.94152 35930 ft 452 kts 303°
2026-04-23 15:05 29.77193 31.88443 35938 ft 452 kts 303°
2026-04-23 15:05 29.80998 31.82682 35939 ft 451 kts 302°
2026-04-23 15:06 29.84686 31.76905 35945 ft 451 kts 302°
2026-04-23 15:06 29.88419 31.71108 35929 ft 449 kts 304°
2026-04-23 15:07 29.90637 31.68540 35931 ft 458 kts 318°
2026-04-23 15:07 29.93373 31.66594 35939 ft 467 kts 328°
2026-04-23 15:07 29.96429 31.65250 35937 ft 477 kts 341°
2026-04-23 15:07 29.99709 31.64589 35951 ft 479 kts 346°
2026-04-23 15:08 30.06344 31.63525 35939 ft 483 kts 346°
2026-04-23 15:09 30.16348 31.61844 35902 ft 485 kts 345°
2026-04-23 15:09 30.23018 31.60651 35891 ft 485 kts 345°
2026-04-23 15:10 30.29678 31.59446 35901 ft 484 kts 345°
2026-04-23 15:10 30.36333 31.58243 35908 ft 483 kts 345°
2026-04-23 15:11 30.42968 31.57045 35899 ft 482 kts 345°
2026-04-23 15:11 30.49590 31.55848 35895 ft 481 kts 345°
2026-04-23 15:12 30.56198 31.54651 35896 ft 480 kts 345°
2026-04-23 15:12 30.62792 31.53455 35915 ft 480 kts 345°
2026-04-23 15:13 30.69382 31.52258 35904 ft 479 kts 345°
2026-04-23 15:13 30.75975 31.51060 35910 ft 479 kts 345°
2026-04-23 15:14 30.82564 31.49863 35906 ft 479 kts 345°
2026-04-23 15:14 30.89148 31.48667 35915 ft 479 kts 345°
2026-04-23 15:15 30.95736 31.47468 35909 ft 479 kts 345°
2026-04-23 15:15 31.02313 31.46269 35916 ft 479 kts 345°
2026-04-23 15:16 31.08896 31.45067 35938 ft 478 kts 345°
2026-04-23 15:16 31.15480 31.43863 35919 ft 479 kts 345°
2026-04-23 15:17 31.22063 31.42657 35926 ft 479 kts 345°
2026-04-23 15:17 31.28640 31.41445 35917 ft 478 kts 345°
2026-04-23 15:18 31.35171 31.40220 35937 ft 478 kts 345°
2026-04-23 15:18 31.41738 31.38986 35925 ft 478 kts 345°
2026-04-23 15:19 31.48304 31.37753 35926 ft 477 kts 345°
2026-04-23 15:19 31.54867 31.36523 35928 ft 477 kts 345°
2026-04-23 15:20 31.61498 31.35710 35946 ft 480 kts 349°
2026-04-23 15:20 31.68164 31.35079 35936 ft 480 kts 349°
2026-04-23 15:21 31.74823 31.34418 35928 ft 480 kts 349°
2026-04-23 15:21 31.81476 31.33730 35929 ft 480 kts 348°
2026-04-23 15:22 31.88126 31.33042 35922 ft 480 kts 348°
2026-04-23 15:22 31.94734 31.32351 35924 ft 480 kts 348°
2026-04-23 15:23 32.01382 31.31653 35922 ft 480 kts 348°
2026-04-23 15:23 32.08030 31.30956 35943 ft 480 kts 348°
2026-04-23 15:24 32.14694 31.30262 35925 ft 480 kts 348°
2026-04-23 15:24 32.21347 31.29560 35922 ft 480 kts 348°
2026-04-23 15:25 32.27996 31.28838 35923 ft 479 kts 348°
2026-04-23 15:25 32.34637 31.28116 35933 ft 479 kts 348°
2026-04-23 15:26 32.41283 31.27395 35924 ft 479 kts 348°
2026-04-23 15:26 32.47929 31.26674 35923 ft 479 kts 348°
2026-04-23 15:27 32.54551 31.25856 35921 ft 475 kts 343°